Вернуться в каталог

KUIPER-00145

АктивенСвязьLEO
NORAD 65767·PAYLOAD·🇺🇸 United States

Запущен Sep 25, 2025 с Cape Canaveral Space Force Station

Loading…

Ближайшие Пролёты (ближайшие 24 часа)

TLE

СвежийSource: CelesTrak SupGP

Эпоха: Sep 14, 2026, 20:23 UTC

1 65767C 25217F   26257.84972222  .00000320  00000+0  41824-4 0  2570
2 65767  51.8988 281.6393 0000506  55.1862 358.1647 14.79930018    19

Отслеживайте KUIPER-00145 в реальном времени с AllMySat

Download on the App Store